Location: ????????
(37.9452°N, 23.1472°E)
Time: 13:29:17
(UTC+00:00)

DELTA 2 DEB (DPAF) - Pass Details

Date: 18 April 2024
Orbit: 598 x 602 km, 98.4° (Epoch: 17 May)

Event Time Altitude Azimuth Distance (km) Brightness Sun altitude
Rises 18:04:18 0° 14° (NNE) 2,850 7.6 -11.6°
Reaches altitude 10° 18:06:29 10° 15° (NNE) 1,943 6.7 -12.0°
Maximum altitude 18:10:42 80° 103° (ESE) 613 3.9 -12.7°
Drops below altitude 10° 18:14:54 10° 190° (S) 1,933 6.4 -13.5°
Sets 18:17:03 0° 192° (SSW) 2,832 7.3 -13.8°
